Location: Newark
(13.8117°N, 3.6025°W)
Time: 15:17:18
(UTC+00:00)

Envisat - Visible Passes

Search period start: 17 July 2019 00:00
Search period end: 27 July 2019 00:00
Orbit: 764 x 766 km, 98.1° (Epoch: 17 July)

Date Brightness Start Highest point End Pass type
(mag) Time Alt. Az. Time Alt. Az. Time Alt. Az.
17 Jul 4.7 19:28:59 10° SSW 19:33:30 33° W 19:38:04 10° NW visible
19 Jul 5.7 19:55:56 10° SW 19:59:02 16° W 20:02:09 10° WNW visible
20 Jul 4.2 19:17:27 10° S 19:22:17 45° W 19:27:06 10° NNW visible
22 Jul 5.4 19:43:55 10° SSW 19:47:47 22° W 19:51:40 10° NW visible
23 Jul 3.6 19:06:02 10° S 19:11:02 62° WSW 19:16:03 10° NNW visible
24 Jul 6.1 20:12:48 10° WSW 20:13:19 10° W 20:13:52 10° W visible
25 Jul 4.9 19:32:10 10° SSW 19:36:33 30° W 19:40:55 10° NW visible
